Torna al catalogo

ONEWEB-0436

AttivoComunicazioniPO
NORAD 51633·PAYLOAD·🇬🇧 United Kingdom

Lanciato Feb 10, 2022 da Guiana Space Centre

Loading…

Prossimi Passaggi (prossime 24 ore)

TLE

AggiornatoSource: CelesTrak SupGP

Epoca: Sep 14, 2026, 16:31 UTC

1 51633C 22012M   26257.68869630  .00001846  00000+0  47601-2 0  2578
2 51633  87.9211 348.0791 0002033  96.6049  15.7353 13.17647303    12

Traccia ONEWEB-0436 in tempo reale con AllMySat

Download on the App Store